Location: Heinade
(51.8390°N, 9.6335°E)
Time: 00:09:44
(UTC+00:00)

Daily predictions for brighter satellites

Satellite Brightness Start Highest point End
(mag) Time Altitude Azimuth Time Altitude Azimuth Time Altitude Azimuth
Cosmos 1943 4.4 00:03:20 10° NNW 00:08:41 42° NE 00:13:59 10° ESE
Cosmos 2227 Rocket 2.2 00:05:20 20° SSW 00:09:19 80° ESE 00:15:01 10° NNE
IDEFIX/ARIANE 42P 4.3 00:05:50 10° NE 00:09:58 23° E 00:14:04 10° SE
Cosmos 1892 3.2 00:09:05 22° SW 00:10:55 43° WNW 00:14:19 10° N
Cosmos 990 Rocket 4.1 00:08:24 22° S 00:11:44 68° ESE 00:16:51 10° NNE
Cosmos 332 Rocket 3.9 00:09:47 20° SSW 00:13:08 78° WNW 00:18:04 10° NNE
CENTAUR R/B 2.7 00:12:18 20° SSW 00:16:20 59° SE 00:23:22 10° NE
CZ-2C R/B 4.1 00:12:19 10° SE 00:17:03 35° ENE 00:21:54 10° N
CZ-2D R/B 4.1 00:13:33 10° NE 00:17:25 20° E 00:21:13 10° SE
GEOS 3 Rocket 3.6 00:12:49 10° NE 00:18:02 81° SE 00:22:02 17° SW
H-2A R/B 2.9 00:17:03 10° N 00:21:05 40° WNW 00:24:02 16° SW
Meteor 1-21 Rocket 4.3 00:18:17 19° S 00:22:29 78° E 00:28:10 10° NNE
Cosmos 1538 Rocket 4.1 00:18:21 10° NNW 00:23:26 59° WSW 00:27:12 18° S
Cosmos 1975 Rocket 3.4 00:21:39 19° SSE 00:24:36 57° E 00:28:55 10° NNE
SL-4 R/B 3.4 00:23:20 10° W 00:26:25 20° SW 00:26:25 20° SW
Cosmos 2074 Rocket 4.4 00:24:31 17° SSW 00:29:12 55° WNW 00:35:20 10° N
Cosmos 2297 Rocket 3.0 00:24:23 11° SW 00:29:41 48° NW 00:35:11 10° NNE
Cosmos 2219 3.3 00:27:36 19° SSW 00:31:37 69° ESE 00:37:13 10° NE
Cosmos 2084 Rocket 3.5 00:29:51 15° SW 00:33:20 73° NW 00:37:26 10° NE
Cosmos 2341 Rocket 4.3 00:28:16 15° S 00:33:25 60° E 00:39:32 10° NNE
Cosmos 1455 Rocket 3.2 00:30:10 10° NNW 00:34:35 64° W 00:37:36 20° S
ATLAS CENTAUR R/B 4.3 00:39:03 10° NNW 00:40:38 12° N 00:42:15 10° NNE
Aureole 1 Rocket 2.9 00:38:34 22° SSW 00:40:49 71° ESE 00:45:20 10° NNE
Cosmos 1825 3.8 00:42:47 13° WSW 00:44:57 21° WNW 00:47:38 10° NNW
ADEOS II 4.0 00:41:00 10° NE 00:45:05 22° E 00:49:09 10° SE
Cosmos 372 Rocket 4.4 00:42:35 17° S 00:46:30 55° ESE 00:51:37 10° NNE
Meteor 2-1 Rocket 4.3 00:42:02 10° NNW 00:47:59 81° W 00:53:19 13° S
Cosmos 923 Rocket 4.0 00:46:17 10° NNW 00:51:34 74° WSW 00:56:46 10° SSE
Cosmos 1025 Rocket 3.8 00:50:34 17° SW 00:53:35 42° WNW 00:57:43 10° N
CRYOSAT 2 4.5 00:49:27 10° N 00:54:20 67° W 00:58:05 17° SSW
Resurs 1-4 Rocket 3.0 00:53:03 10° NNE 00:58:04 41° E 01:03:02 10° SSE
BREEZE-M DEB (TANK) 3.1 00:54:04 10° W 00:58:05 23° SW 00:58:59 20° SSW
NOSS 3-2 (A) 3.3 00:56:57 16° SSW 01:01:13 72° SE 01:07:34 10° NE
Cosmos 1606 2.5 00:57:42 10° NNW 01:01:17 74° W 01:04:04 16° S
Cosmos 1937 Rocket 3.7 00:58:06 16° S 01:02:20 64° ESE 01:07:33 10° NNE
Cosmos 2263 Rocket 2.2 00:58:49 16° SSW 01:03:18 82° ESE 01:08:55 10° NNE
CZ-4C R/B 3.4 00:59:51 10° W 01:04:36 41° NNW 01:10:37 10° NE
Cosmos 1898 Rocket 3.5 01:01:19 16° SSW 01:05:27 87° ESE 01:10:40 10° NNE
COSMOS 2455 4.4 01:01:32 10° W 01:06:55 33° NNW 01:12:20 10° NNE
Orbus 7S? 2.8 01:04:23 10° WNW 01:07:02 56° SSW 01:10:50 10° SE
NOSS 3-2 (C) 4.0 01:03:08 14° S 01:07:17 41° ESE 01:13:04 10° NE
MOZ.5/SAFIR/RUBIN 5/SL-8 3.9 01:05:47 14° S 01:09:42 56° W 01:14:16 10° NNW
Cosmos 2218 Rocket 4.0 01:04:28 13° S 01:10:06 84° E 01:16:19 10° N
Helios 1A Rocket 3.8 01:12:04 16° SSW 01:14:19 28° W 01:17:39 10° NW
BlueWalker 3 2.2 01:10:54 10° W 01:14:38 69° N 01:18:23 10° E
Cosmos 2366 rocket 4.0 01:11:40 13° S 01:17:21 85° W 01:23:38 10° N
Cosmos 1461 3.1 01:14:31 16° SSW 01:17:29 51° SE 01:21:16 10° NE
Iridium 921 4.4 01:14:40 14° S 01:17:32 82° E 01:21:01 10° N
Cosmos 1844 Rocket 4.1 01:18:38 10° SSE 01:23:24 30° ESE 01:28:10 10° NE
BREEZE-M DEB (TANK) 3.5 01:25:57 14° S 01:25:57 14° S 01:26:53 10° SSE
MSX 3.9 01:21:55 10° NNE 01:27:41 77° ESE 01:33:23 10° SSW
BREEZE-M R/B 4.5 01:21:39 10° W 01:31:48 74° SSW 01:37:32 10° ESE
Cosmos 1680 Rocket 3.9 01:28:49 10° NW 01:33:47 46° WSW 01:38:43 10° S
ALOS 3.8 01:30:01 10° NNE 01:34:08 31° E 01:38:14 10° SSE
Cosmos 1818 4.1 01:30:04 10° NW 01:35:08 39° WSW 01:40:10 10° S
Cosmos 2112 Rocket 4.2 01:30:56 10° NNW 01:35:58 51° WSW 01:40:57 10° S
SL-16 R/B 3.6 01:33:08 10° NW 01:37:18 21° W 01:41:09 11° SW
SL-16 R/B 2.8 01:33:04 10° SSE 01:39:18 75° ENE 01:45:32 10° NNW
Cosmos 1603 3.7 01:36:57 10° NNW 01:42:42 76° WSW 01:48:25 10° SSE
Cosmos 1869 4.4 01:40:46 10° NNW 01:43:51 25° W 01:46:40 11° SW
Cosmos 1544 Rocket 4.5 01:42:02 10° NNW 01:46:02 33° W 01:49:57 10° SSW
COSMOS 2441 4.5 01:42:19 10° NNE 01:47:08 78° ESE 01:51:57 10° S
USA 234 3.6 01:41:08 10° ESE 01:47:41 76° NNE 01:54:13 10° WNW
Meteor 1-28 Rocket 3.1 01:45:59 10° SSE 01:49:31 82° ENE 01:53:05 10° NNW
IDEFIX/ARIANE 42P 2.8 01:44:43 10° N 01:49:56 64° WNW 01:55:05 10° SSW
Cosmos 2082 4.2 01:45:44 10° SW 01:51:14 53° NW 01:56:46 10° NNE
Cosmos 2228 3.7 01:47:38 10° NNW 01:51:38 37° W 01:55:36 10° SSW
Cosmos 1943 3.6 01:47:28 10° NW 01:52:46 44° WSW 01:58:03 10° S
Cosmos 2227 Rocket 3.8 01:49:12 10° W 01:54:00 27° NW 01:58:49 10° NNE
CZ-2C R/B 3.2 01:49:30 10° NNE 01:55:04 88° WNW 02:00:16 10° SSW
CZ-2C R/B 3.1 01:52:09 10° S 01:57:11 45° W 02:02:23 10° NNW
Cosmos 1437 Rocket 2.7 01:53:45 10° SSW 01:57:35 88° W 02:01:24 10° NNE
CZ-2D R/B 2.2 01:52:39 10° NNE 01:58:02 75° WNW 02:03:18 10° SSW
FENGYUN 3A 3.8 01:54:57 10° NNE 02:00:22 81° ESE 02:05:46 10° SSW
Cosmos 1727 Rocket 4.3 01:57:23 10° NNW 02:03:33 56° W 02:09:43 10° SSW
CENTAUR R/B 3.5 02:01:12 10° WSW 02:07:15 50° NNW 02:14:43 10° NE
H-2A R/B 4.1 02:04:05 10° N 02:07:51 40° WNW 02:11:35 10° SW
Envisat 4.4 02:04:39 10° NNE 02:09:19 35° E 02:13:57 10° SSE
Cosmos 1048 Rocket 4.0 02:05:39 10° NNW 02:10:51 73° WSW 02:16:06 10° SSE
USA 238 DEB 3.9 02:07:09 10° SSW 02:13:17 64° SE 02:20:02 10° NE
USA 238 3.9 02:07:11 10° SSW 02:13:20 63° SE 02:20:05 10° NE
NPP 4.3 02:09:15 10° N 02:14:21 45° WNW 02:19:27 10° SW
Cosmos 2297 Rocket 4.5 02:11:39 10° WNW 02:15:11 17° NNW 02:18:43 10° NNE
